Temp
87 87 87 87 87 87 87 87 88 88 87 89 88 88 88 88 90 90 90 89 89 88 87 88 87 87 89 88 87 85 83 85 83 85 86 87 86 88 89 88 89 85
87 87 86 88 86 87 87 88 87 87 87 88 88 88 89 89 91 90 89 89 89 89 88 89 88 87 88 88 87 87 85 86 85 89 86 87 87 87 88 90 91 88
88 88 88 88 89 89 91 90 88 89 89 90 90 89 90 91 90 89 89 89 89 90 88 88 88 87 88 87 86 87 87 85 85 88 86 87 88 87 88 91 89 90
87 88 89 90 90 90 91 89 89 88 89 89 90 92 92 94 90 90 89 89 88 89 89 89 88 89 88 88 87 86 87 86 87 87 86 86 87 88 88 89 90 89
88 88 89 90 90 89 89 90 91 90 91 89 92 90 89 89 89 90 89 88 88 89 89 88 89 89 88 87 87 86 87 87 87 86 86 85 87 87 89 88 86 88
88 87 88 89 90 89 90 91 90 91 91 93 91 92 91 90 90 90 89 90 91 91 91 91 89 90 90 87 87 86 87 89 89 86 86 85 87 89 92 89 87 87
90 89 90 91 92 92 91 90 90 91 92 93 91 91 91 91 90 89 89 90 91 89 91 88 87 88 88 87 86 85 86 86 87 87 85 86 85 86 90 89 87 88
91 91 91 91 92 92 91 92 92 91 91 91 93 91 92 93 90 92 91 91 91 90 88 90 88 87 90 89 86 86 86 90 88 86 86 86 87 85 86 88 88 86
92 91 91 91 92 93 93 94 94 93 92 92 94 94 92 92 92 92 89 89 89 89 87 89 87 89 89 88 87 86 86 88 90 87 86 86 86 85 87 87 87 86
83 91 92 93 93 94 94 95 95 95 94 94 95 95 94 92 92 92 90 87 89 88 88 88 88 89 89 89 88 87 86 86 86 87 87 87 87 87 88 87 87 85
75 78 90 92 93 94 95 95 96 96 94 94 95 95 95 93 91 91 89 88 90 89 88 88 89 89 88 90 90 89 88 88 87 87 87 87 87 87 88 86 87 87
75 76 83 93 93 95 96 96 96 96 96 95 95 94 94 96 92 93 92 88 89 89 89 88 88 88 87 88 91 91 89 89 88 88 88 88 88 89 88 88 88 87
78 77 78 85 93 95 97 96 97 98 97 96 95 95 95 96 96 92 91 91 89 90 91 89 88 89 87 87 88 88 89 88 90 89 88 88 89 90 91 90 90 89
78 77 76 80 87 91 94 97 98 98 96 95 95 94 95 96 97 95 93 93 91 91 90 89 88 89 87 87 88 89 90 89 89 89 90 89 90 90 91 92 91 92
78 78 77 78 79 80 87 92 95 94 93 94 93 95 98 97 97 98 94 92 92 90 90 91 92 91 91 89 88 88 89 90 89 89 90 88 89 91 91 90 92 94
77 76 76 76 76 74 73 73 76 84 95 95 93 95 92 91 91 92 95 93 92 91 91 93 92 94 87 81 82 88 88 90 90 88 88 88 87 87 90 91 93 94
78 77 76 75 76 76 76 77 77 77 75 81 90 91 90 90 91 92 94 96 94 93 92 93 94 95 82 74 74 78 88 88 87 86 87 87 88 86 85 89 91 92
78 78 77 77 77 77 77 77 77 75 76 76 81 89 89 92 93 91 90 93 96 96 95 94 94 86 75 72 73 73 79 88 90 89 90 88 88 88 88 89 89 92
75 77 77 77 77 79 78 76 75 76 77 79 81 84 87 88 88 91 91 92 93 90 93 95 95 82 73 69 71 71 72 81 91 90 90 91 89 88 88 87 87 87
72 73 74 77 77 77 78 78 76 76 77 80 81 82 82 82 86 89 90 88 90 90 89 93 94 84 73 68 68 69 70 75 89 91 90 90 88 89 91 89 86 86
72 71 72 73 76 78 78 77 78 77 77 78 79 81 81 81 81 80 82 85 89 92 91 93 95 81 71 66 66 66 68 72 87 91 91 89 89 88 86 88 87 87
72 71 71 74 75 76 77 78 78 77 77 78 78 78 79 80 79 80 80 80 79 80 82 87 93 77 73 66 64 65 67 77 84 85 87 89 88 88 88 86 87 87
74 72 72 73 74 74 75 76 77 78 78 78 77 78 80 80 80 81 81 81 81 81 82 84 89 81 71 64 62 63 66 78 82 85 85 86 87 87 87 87 88 87
77 76 74 73 74 74 74 76 77 77 78 79 78 78 78 80 80 79 79 79 80 80 83 85 89 84 70 62 60 61 69 80 81 83 84 84 85 86 87 86 87 87
80 79 77 77 75 75 76 75 75 76 77 78 78 78 78 78 79 79 79 79 80 82 80 81 86 84 71 62 60 58 67 81 82 83 83 84 86 85 86 86 85 86
80 79 79 78 78 78 77 77 77 76 77 77 77 77 77 78 79 79 79 80 82 82 83 84 85 88 85 62 59 57 61 80 83 82 82 83 85 84 84 84 85 85
MSLP
1015.96 1016.12 1016.44 1016.60 1016.72 1016.72 1016.92 1017.16 1017.20 1017.32 1017.36 1017.36 1017.68 1017.68 1017.56 1017.48 1017.20 1017.36 1017.56 1017.80 1018.04 1018.20 1018.36 1018.40 1018.52 1018.72 1018.84 1018.96 1019.12 1019.40 1019.60 1019.72 1019.76 1019.68 1019.76 1019.84 1020.08 1020.08 1020.24 1020.16 1020.04 1020.24
1015.80 1015.92 1016.12 1016.28 1016.48 1016.52 1016.56 1016.64 1016.84 1016.96 1017.16 1017.08 1017.08 1017.16 1017.16 1017.20 1017.28 1017.28 1017.52 1017.76 1017.92 1018.08 1018.12 1018.32 1018.44 1018.60 1018.72 1018.88 1019.04 1019.28 1019.48 1019.56 1019.84 1019.44 1019.84 1019.88 1019.92 1019.96 1020.00 1019.76 1019.84 1019.84
1015.60 1015.84 1016.04 1016.28 1016.40 1016.48 1016.36 1016.36 1016.52 1016.68 1016.84 1016.84 1016.72 1016.84 1017.08 1017.00 1017.20 1017.28 1017.36 1017.56 1017.88 1017.92 1018.04 1018.16 1018.36 1018.48 1018.60 1018.76 1018.96 1019.16 1019.40 1019.60 1019.80 1019.52 1019.68 1019.80 1019.72 1019.88 1019.76 1019.68 1019.80 1019.76
1015.44 1015.48 1015.64 1015.76 1015.84 1016.12 1016.04 1016.24 1016.36 1016.52 1016.52 1016.80 1016.88 1016.64 1016.64 1016.68 1016.96 1017.32 1017.40 1017.48 1017.72 1017.80 1017.92 1018.04 1018.20 1018.32 1018.52 1018.64 1018.84 1019.12 1019.16 1019.32 1019.32 1019.32 1019.64 1019.64 1019.64 1019.68 1019.64 1019.48 1019.52 1019.64
1015.20 1015.28 1015.28 1015.36 1015.36 1015.56 1015.80 1016.00 1016.20 1016.32 1016.40 1016.44 1016.48 1016.44 1016.56 1016.64 1016.88 1017.12 1017.36 1017.52 1017.64 1017.80 1017.84 1018.04 1018.08 1018.20 1018.32 1018.56 1018.68 1019.08 1019.08 1019.28 1019.16 1019.28 1019.60 1019.80 1019.60 1019.60 1019.48 1019.48 1019.80 1019.88
1015.04 1015.04 1015.08 1015.24 1015.20 1015.40 1015.72 1015.84 1015.88 1016.00 1016.16 1016.20 1016.28 1016.20 1016.44 1016.56 1016.72 1016.92 1017.20 1017.48 1017.56 1017.64 1017.76 1017.84 1018.08 1018.12 1018.16 1018.44 1018.64 1018.88 1018.96 1019.08 1018.96 1019.12 1019.48 1019.72 1019.64 1019.32 1019.20 1019.24 1019.48 1019.76
1015.08 1015.08 1015.16 1015.08 1015.16 1015.12 1015.40 1015.52 1015.60 1015.56 1015.76 1015.72 1015.80 1016.08 1016.12 1016.48 1016.68 1016.76 1016.88 1017.12 1017.28 1017.52 1017.52 1017.68 1017.88 1018.04 1018.00 1018.20 1018.56 1018.84 1018.84 1018.88 1018.80 1018.96 1019.36 1019.44 1019.52 1019.56 1019.24 1019.24 1019.32 1019.52
1014.84 1014.84 1014.92 1014.96 1015.16 1015.12 1015.28 1015.32 1015.40 1015.48 1015.40 1015.52 1015.80 1015.80 1015.84 1016.16 1016.44 1016.52 1016.60 1016.76 1017.04 1017.24 1017.36 1017.40 1017.56 1017.80 1017.84 1018.00 1018.44 1018.72 1018.88 1018.72 1018.88 1019.00 1019.16 1019.28 1019.28 1019.56 1019.44 1019.32 1019.28 1019.48
1014.64 1014.84 1014.84 1014.96 1015.12 1015.08 1015.20 1015.08 1015.16 1015.24 1015.16 1015.48 1015.52 1015.60 1015.60 1015.72 1016.04 1016.28 1016.44 1016.60 1016.84 1016.96 1017.16 1017.28 1017.36 1017.52 1017.56 1017.76 1018.04 1018.40 1018.68 1018.64 1018.48 1018.76 1019.04 1019.28 1019.40 1019.44 1019.40 1019.20 1019.40 1019.48
1015.92 1014.68 1014.68 1014.80 1014.88 1014.76 1014.88 1014.80 1014.72 1014.88 1014.96 1015.20 1015.24 1015.20 1015.52 1015.56 1015.60 1015.88 1016.20 1016.52 1016.76 1016.84 1016.92 1017.08 1017.20 1017.28 1017.36 1017.48 1017.68 1017.92 1018.24 1018.48 1018.40 1018.40 1018.60 1018.80 1019.00 1019.04 1019.08 1019.16 1019.28 1019.40
1016.84 1016.88 1015.16 1014.60 1014.56 1014.40 1014.36 1014.40 1014.36 1014.48 1014.64 1014.92 1015.00 1015.08 1015.04 1015.36 1015.60 1015.60 1016.00 1016.36 1016.64 1016.76 1016.84 1016.92 1017.00 1017.00 1017.20 1017.32 1017.36 1017.40 1017.72 1018.00 1018.16 1018.20 1018.24 1018.32 1018.44 1018.52 1018.60 1018.72 1018.84 1019.00
1015.88 1016.64 1016.12 1014.56 1014.28 1014.04 1013.96 1013.92 1014.00 1014.12 1014.32 1014.60 1014.72 1015.00 1014.88 1014.96 1015.44 1015.56 1015.72 1016.12 1016.24 1016.36 1016.48 1016.64 1016.68 1016.76 1016.92 1017.04 1017.08 1017.16 1017.36 1017.52 1017.72 1017.92 1017.96 1018.04 1018.04 1018.08 1018.16 1018.24 1018.40 1018.48
1015.24 1015.76 1016.16 1015.40 1014.08 1013.68 1013.40 1013.48 1013.64 1013.72 1013.92 1014.32 1014.48 1014.72 1014.92 1014.92 1015.00 1015.44 1015.48 1015.72 1015.96 1016.04 1016.28 1016.40 1016.52 1016.56 1016.72 1016.84 1016.92 1016.96 1017.08 1017.32 1017.52 1017.60 1017.68 1017.72 1017.72 1017.76 1017.72 1017.76 1017.88 1018.00
1015.24 1015.44 1016.36 1016.36 1014.92 1013.76 1013.36 1013.28 1013.32 1013.44 1013.60 1013.76 1014.08 1014.60 1014.76 1014.80 1014.76 1015.00 1015.24 1015.40 1015.68 1015.88 1016.00 1016.12 1016.36 1016.56 1016.64 1016.72 1016.80 1016.88 1016.96 1017.08 1017.20 1017.32 1017.40 1017.44 1017.40 1017.40 1017.36 1017.36 1017.36 1017.44
1015.48 1016.16 1017.00 1016.84 1016.32 1016.24 1015.16 1014.28 1013.72 1013.64 1013.64 1013.64 1013.88 1014.20 1014.32 1014.44 1014.44 1014.40 1014.84 1015.28 1015.44 1015.68 1015.92 1016.00 1016.24 1016.40 1016.40 1016.52 1016.72 1016.84 1016.84 1016.92 1016.92 1017.00 1017.12 1017.24 1017.20 1017.12 1017.00 1016.96 1016.92 1016.80
1015.72 1015.76 1016.20 1016.44 1016.52 1016.64 1016.72 1016.60 1016.24 1015.56 1014.48 1014.04 1014.04 1014.00 1014.08 1014.20 1014.32 1014.40 1014.48 1014.84 1015.24 1015.48 1015.64 1015.80 1015.88 1015.80 1015.84 1016.00 1016.16 1016.36 1016.56 1016.56 1016.56 1016.64 1016.72 1016.84 1017.00 1017.04 1016.84 1016.64 1016.56 1016.48
1015.72 1015.84 1015.76 1015.76 1015.64 1015.36 1015.72 1016.16 1016.36 1016.24 1016.48 1016.00 1014.68 1014.16 1014.12 1014.16 1014.24 1014.44 1014.44 1014.36 1014.64 1015.00 1015.36 1015.40 1015.36 1015.20 1015.28 1015.60 1015.84 1015.96 1016.08 1016.28 1016.40 1016.40 1016.36 1016.52 1016.64 1016.80 1016.92 1016.68 1016.36 1016.12
1015.72 1015.80 1016.16 1016.28 1015.96 1015.68 1015.56 1015.76 1015.92 1015.92 1015.88 1015.92 1015.64 1014.68 1014.16 1014.00 1014.16 1014.28 1014.28 1014.28 1014.20 1014.28 1014.60 1014.80 1014.88 1014.72 1014.88 1015.16 1015.40 1015.56 1015.72 1015.88 1016.00 1016.16 1016.12 1016.20 1016.24 1016.32 1016.40 1016.40 1016.40 1016.20
1015.80 1015.84 1016.12 1016.16 1016.04 1015.68 1015.76 1016.08 1016.32 1016.00 1015.20 1015.08 1015.32 1015.08 1014.60 1014.36 1014.12 1014.12 1014.24 1014.20 1014.28 1014.40 1014.32 1014.16 1014.28 1014.28 1014.60 1014.88 1015.04 1015.16 1015.32 1015.48 1015.56 1015.64 1015.88 1015.84 1015.80 1015.88 1015.96 1016.04 1016.08 1016.16
1016.12 1016.04 1016.08 1016.00 1015.92 1015.88 1015.80 1015.76 1015.76 1015.84 1015.96 1015.76 1015.44 1015.20 1015.12 1015.08 1014.76 1014.36 1014.12 1014.20 1014.28 1014.40 1014.44 1014.24 1013.96 1013.76 1014.08 1014.44 1014.72 1014.88 1015.00 1015.20 1015.16 1015.24 1015.32 1015.32 1015.36 1015.36 1015.40 1015.52 1015.64 1015.84
1015.88 1015.92 1016.16 1016.16 1015.88 1015.68 1015.72 1015.80 1015.68 1015.60 1015.52 1015.52 1015.44 1015.24 1015.20 1015.24 1015.20 1015.20 1015.08 1014.84 1014.56 1014.36 1014.48 1014.48 1014.04 1013.68 1014.00 1014.20 1014.32 1014.56 1014.80 1015.04 1014.96 1014.92 1014.96 1015.00 1014.92 1014.88 1014.96 1014.92 1015.00 1015.08
1015.92 1015.64 1015.80 1015.96 1015.96 1015.84 1015.76 1015.52 1015.40 1015.32 1015.36 1015.32 1015.44 1015.36 1015.04 1014.84 1014.84 1014.84 1014.96 1015.04 1014.96 1015.12 1015.32 1015.04 1014.08 1013.76 1013.76 1014.04 1014.24 1014.32 1014.40 1014.76 1014.76 1014.84 1014.84 1014.76 1014.68 1014.64 1014.60 1014.56 1014.56 1014.68
1016.32 1016.44 1016.04 1016.00 1016.04 1016.04 1015.88 1015.72 1015.48 1015.24 1015.08 1014.92 1015.24 1015.24 1015.16 1014.96 1014.80 1014.60 1014.44 1014.52 1014.48 1014.32 1014.44 1014.56 1014.04 1013.56 1013.48 1013.64 1013.80 1014.04 1014.68 1014.80 1014.60 1014.60 1014.64 1014.60 1014.48 1014.32 1014.28 1014.28 1014.28 1014.28
1015.64 1015.96 1016.28 1016.28 1016.24 1016.12 1015.88 1015.64 1015.40 1015.20 1015.08 1014.84 1015.12 1015.20 1015.28 1015.12 1014.96 1014.96 1014.88 1014.88 1014.92 1014.68 1013.96 1013.72 1013.32 1013.00 1013.12 1013.28 1013.44 1013.60 1013.96 1014.24 1014.40 1014.52 1014.52 1014.52 1014.36 1014.12 1014.04 1014.08 1014.00 1013.96
1015.48 1015.48 1015.68 1015.76 1015.84 1015.72 1015.52 1015.52 1015.44 1015.36 1015.12 1014.88 1014.84 1014.92 1015.04 1014.96 1015.04 1015.12 1015.04 1014.92 1014.84 1014.72 1014.36 1014.16 1013.44 1012.80 1012.68 1012.96 1013.12 1013.40 1013.64 1013.60 1013.80 1014.08 1014.36 1014.24 1014.12 1014.08 1013.84 1013.88 1013.84 1013.72
1015.36 1015.40 1015.36 1015.32 1015.28 1015.24 1015.20 1015.20 1015.08 1015.04 1015.00 1014.92 1014.80 1014.80 1014.92 1014.96 1015.00 1015.04 1015.04 1014.76 1014.36 1014.36 1014.44 1014.52 1014.44 1013.56 1012.96 1012.96 1012.92 1013.20 1013.36 1013.28 1013.40 1013.84 1014.12 1013.92 1013.72 1013.76 1013.92 1013.76 1013.60 1013.52
Wind_Speed
7 7 7 5 6 5 6 6 7 6 5 5 5 5 4 4 2 4 6 6 5 5 4 4 3 4 4 3 3 4 2 1 2 3 2 2 2 4 2 5 3 4
9 9 7 7 6 6 5 6 5 5 4 4 5 5 3 4 4 3 4 6 5 5 5 5 4 3 3 4 3 3 3 3 3 3 2 2 2 3 5 2 1 2
9 9 10 10 10 9 10 7 6 5 5 5 4 5 6 5 5 4 4 5 6 6 5 5 5 4 3 3 3 3 4 3 2 3 3 2 2 2 2 3 1 2
11 10 11 12 10 10 9 7 7 6 6 6 6 6 6 7 6 7 4 5 4 4 6 5 5 6 4 4 4 4 3 3 3 2 3 3 2 3 2 2 1 2
13 11 10 10 9 9 8 8 10 9 8 7 8 6 4 3 6 7 6 5 4 5 4 6 5 4 5 4 4 3 4 5 4 3 2 2 2 3 3 2 2 3
11 10 9 9 9 9 10 10 9 10 9 10 8 7 7 6 4 6 7 8 8 7 7 7 6 6 6 5 5 4 4 5 5 6 4 4 3 3 5 3 3 3
13 12 13 11 12 10 10 10 9 9 10 8 7 7 8 8 6 5 7 8 8 7 8 7 6 6 5 5 5 5 4 3 3 4 6 4 3 3 5 3 2 2
14 13 12 11 13 12 12 10 10 8 8 8 10 8 8 10 9 9 6 7 8 8 6 6 7 6 7 5 6 5 6 6 5 3 2 3 3 3 3 4 3 2
13 12 12 13 15 13 14 13 12 11 8 9 10 10 8 8 10 10 7 7 7 6 7 6 5 7 6 6 6 7 6 6 6 7 5 4 5 4 4 3 4 3
12 11 15 15 15 14 15 15 13 12 10 11 11 11 11 8 7 10 8 7 7 6 7 6 6 6 7 7 6 7 7 7 6 4 7 7 6 5 6 5 5 4
6 17 14 15 16 14 16 16 15 13 11 13 12 11 11 10 8 7 8 9 10 8 7 8 8 7 7 8 7 7 7 7 7 6 4 5 6 6 6 5 6 5
8 10 18 17 16 16 16 15 14 13 13 12 12 11 9 10 10 9 8 9 9 9 8 8 8 8 7 8 9 9 8 8 7 7 7 6 5 6 6 6 5 5
9 9 13 15 14 14 13 12 13 14 14 14 11 10 10 10 12 11 8 8 9 9 9 8 8 8 7 8 8 7 7 9 9 8 8 7 7 8 8 7 8 7
4 4 11 16 11 9 9 10 11 11 10 9 11 11 11 11 11 12 10 9 8 9 8 7 8 8 7 7 8 8 7 7 8 8 9 8 8 9 9 9 9 9
3 6 8 13 12 13 12 8 5 6 5 5 8 10 11 10 10 10 11 11 10 9 9 9 10 10 9 8 8 9 8 8 8 8 9 8 8 10 9 9 9 9
3 5 2 4 7 6 10 15 19 16 8 6 4 6 7 7 7 6 7 11 11 10 10 11 10 10 11 15 13 9 9 10 9 8 9 8 8 7 9 10 11 11
3 4 3 4 3 4 7 4 7 7 14 17 8 4 5 3 4 7 8 7 11 12 12 12 12 11 16 16 17 16 11 9 9 8 8 9 9 8 8 8 8 8
7 5 5 3 2 2 3 4 6 8 8 9 11 10 6 5 7 6 5 7 8 10 13 13 12 14 15 18 19 19 16 11 10 9 8 8 9 10 8 8 9 9
7 6 4 3 3 2 3 4 4 7 5 5 5 7 7 4 6 7 7 7 8 8 7 10 12 15 15 17 19 20 20 16 10 10 10 9 9 9 10 8 7 8
5 7 8 8 6 3 2 1 3 3 4 6 5 4 4 5 9 7 7 7 8 8 7 9 10 11 18 17 19 20 20 17 12 12 10 9 8 9 10 10 10 9
6 7 6 7 7 6 4 3 2 3 4 4 4 4 4 3 2 4 6 8 8 9 9 11 13 14 10 16 18 20 20 16 13 14 11 9 9 8 6 7 7 9
6 7 6 5 6 5 6 5 4 4 4 3 4 5 5 4 3 3 5 4 4 6 11 11 13 15 15 14 17 17 21 12 12 13 12 10 10 9 9 8 8 7
4 3 3 5 5 5 5 6 6 5 5 4 4 5 7 7 6 5 6 7 8 9 10 13 14 15 16 15 17 19 12 8 11 11 11 11 10 9 8 8 8 8
3 2 3 2 2 3 4 5 5 5 5 4 5 6 6 6 6 6 6 5 7 9 11 11 13 14 16 16 17 18 16 9 11 10 10 10 10 9 8 7 8 13
5 3 1 2 2 3 3 5 5 5 4 4 5 5 6 6 6 7 8 7 8 11 13 12 11 14 18 16 17 17 16 11 11 10 11 11 11 10 9 8 8 11
6 5 5 5 4 4 4 4 4 5 5 5 5 4 5 7 8 8 10 9 8 9 9 11 14 15 15 14 18 18 19 13 9 10 11 12 11 9 8 7 9 9
Wind_Direction
177 176 185 186 178 187 171 178 189 187 187 177 175 195 196 161 213 149 152 151 166 156 167 152 153 153 173 147 152 154 172 112 137 239 253 179 210 292 197 242 177 183
182 179 179 186 186 183 177 183 187 185 190 194 180 162 193 148 188 170 151 154 163 175 158 167 160 179 177 162 170 168 179 170 187 196 241 215 202 221 259 245 286 145
188 182 181 189 191 191 192 189 178 193 178 198 202 161 180 179 176 178 169 171 169 180 168 166 172 175 187 146 177 188 184 175 244 229 217 197 231 234 258 278 259 268
190 189 189 193 191 188 195 186 182 184 190 182 198 196 195 177 172 171 180 187 171 191 164 188 180 177 184 185 171 186 194 182 214 200 210 200 222 269 267 264 290 259
190 192 194 196 193 181 197 189 192 185 203 183 191 194 190 193 168 170 177 176 191 193 178 177 187 188 172 187 185 191 197 195 199 197 209 226 228 226 251 198 217 260
194 195 195 199 197 181 190 195 196 185 200 189 191 183 186 198 189 180 178 187 194 200 192 192 183 198 188 182 190 194 211 208 198 187 189 202 228 229 242 202 186 213
196 197 199 199 204 196 192 195 197 195 193 200 185 189 185 186 194 200 182 185 192 196 203 186 188 187 193 177 184 194 220 225 263 178 182 197 193 246 255 282 253 207
201 196 200 200 204 200 202 195 196 204 188 199 187 192 191 189 185 202 201 186 199 190 204 197 179 184 192 193 181 194 201 213 225 246 213 197 207 199 223 256 270 225
203 201 199 200 203 202 203 204 198 199 203 198 199 192 197 199 181 198 193 195 200 195 187 203 187 184 199 196 189 188 196 219 212 191 205 212 209 216 232 234 235 245
290 221 200 203 204 203 203 205 201 198 199 204 205 201 192 201 195 190 189 188 202 202 186 195 202 198 191 204 199 187 193 204 242 204 187 200 214 215 212 217 233 235
288 284 231 205 205 205 204 204 204 200 195 202 204 212 196 188 202 194 182 187 197 206 197 194 205 206 196 199 205 204 194 202 211 227 220 200 203 206 217 217 212 220
204 257 268 221 211 209 206 202 204 203 197 197 206 211 211 189 189 202 193 187 196 199 207 203 203 206 202 205 208 204 201 202 204 207 214 219 218 210 208 217 227 220
208 207 257 267 226 217 210 202 203 204 201 195 199 208 213 215 189 192 199 193 191 197 204 207 205 209 207 206 214 219 203 198 209 206 209 208 213 217 219 216 218 222
223 228 269 273 272 247 222 214 207 206 201 191 183 199 210 217 218 189 189 198 195 200 207 205 206 209 212 210 210 222 227 210 203 210 212 211 212 210 218 222 214 215
345 31 342 332 331 327 313 291 251 217 212 202 178 191 203 212 222 219 187 192 198 198 205 214 212 211 213 211 211 212 223 230 220 214 217 216 211 215 214 219 227 228
98 107 94 22 2 30 17 0 346 331 283 231 235 210 194 196 208 228 217 185 190 191 196 210 218 218 209 209 207 210 211 221 222 219 218 219 220 221 223 215 218 227
105 125 145 159 177 114 105 50 339 350 344 322 292 241 233 195 205 215 228 226 193 191 199 209 217 222 202 197 202 209 212 216 223 219 212 218 219 220 226 230 234 231
44 92 96 52 354 2 59 99 163 167 210 244 298 282 230 227 224 219 227 241 238 215 204 209 217 221 205 194 197 203 208 215 220 226 224 215 218 222 221 226 233 239
14 21 44 95 75 71 143 154 282 298 245 212 252 309 325 280 228 220 223 227 241 258 252 218 211 215 208 197 200 201 205 210 218 220 225 228 221 218 222 225 226 227
22 19 13 10 3 10 10 143 177 192 296 312 304 305 297 305 312 274 239 224 230 247 260 265 254 217 201 197 202 204 206 206 217 221 226 230 226 221 219 219 219 221
33 37 16 359 351 348 338 302 258 240 226 233 262 263 250 269 289 321 318 308 281 253 249 256 255 261 216 202 200 203 208 206 216 222 228 231 235 237 237 232 217 216
37 15 2 353 346 339 340 331 283 256 250 236 237 250 268 260 241 239 249 254 265 284 282 283 265 255 246 210 211 209 205 201 213 220 224 230 231 234 239 238 241 239
117 92 310 338 345 335 329 332 330 298 263 242 240 251 258 254 252 237 224 221 226 226 226 234 249 250 241 215 204 207 205 218 217 219 222 228 233 232 232 234 237 237
13 143 164 222 295 322 323 317 316 322 308 272 262 270 267 273 282 276 274 268 264 261 242 237 241 245 241 216 206 198 190 195 211 216 224 226 235 235 233 237 242 241
359 5 309 305 307 313 315 308 310 309 296 296 286 271 271 278 284 283 284 279 268 269 271 266 260 248 239 216 206 198 196 207 204 210 218 224 226 231 230 235 236 239
344 3 347 330 312 305 306 291 286 286 284 287 283 280 280 281 276 278 285 283 265 257 274 286 283 273 264 227 206 201 199 204 207 207 220 222 223 226 230 224 226 229